Regional Weather Roundup
Issued by NWS

Home | Current Version | Previous Version | Text Only | Print | Product List | Glossary Off
Versions: 1 2 3 4 5 6 7 8 9 10 11 12 13 14 15 16 17 18 19 20 21 22 23 24 25 26 27 28 29 30 31 32 33 34 35 36 37 38 39 40 41 42 43 44 45 46 47 48 49 50

000
ASUS43 KBIS 282102
RWRND

NORTH DAKOTA REGIONAL WEATHER ROUNDUP
NATIONAL WEATHER SERVICE BISMARCK ND
400 PM CDT FRI AUG 28 2015

NOTE: "FAIR" INDICATES FEW OR NO CLOUDS BELOW 12,000 FEET WITH NO
SIGNIFICANT WEATHER AND/OR OBSTRUCTIONS TO VISIBILITY.


NDZ001>003-009>011-017-282200-
NORTHWEST NORTH DAKOTA

CITY           SKY/WX    TMP DP  RH WIND       PRES   REMARKS
WILLISTON      MOSUNNY   90  48  23 W12       29.88F HAZE
MINOT          SUNNY     85  56  37 W5        29.85F
MINOT AFB      SUNNY     87  58  38 N1        29.84F
$$

NDZ018>021-031>035-040>046-282200-
SOUTHWEST NORTH DAKOTA

CITY           SKY/WX    TMP DP  RH WIND       PRES   REMARKS
BISMARCK       SUNNY     89  65  44 S10       29.87F HX  91
DICKINSON      MOSUNNY   90  46  21 CALM      29.91F
GARRISON         N/A     86  30  13 S6        29.88S
HETTINGER ARPT SUNNY     89  52  28 W13       29.96F
$$

NDZ004>008-012>016-024-026-027-054-282200-
NORTHEAST NORTH DAKOTA

CITY           SKY/WX    TMP DP  RH WIND       PRES   REMARKS
GRAND FORKS    PTSUNNY   84  68  58 SW20G25   29.81S
GRND FRKS AFB  SUNNY     85  67  54 SW18G24   29.82R
DEVILS LAKE    SUNNY     84  64  51 SW9       29.83S
$$

NDZ022-023-025-028>030-036>039-047>053-282200-
SOUTHEAST NORTH DAKOTA

CITY           SKY/WX    TMP DP  RH WIND       PRES   REMARKS
FARGO          SUNNY     83  66  56 S20       29.88F
JAMESTOWN      MOSUNNY   81  67  62 S12       29.87F
$$



USA.gov is the U.S. government's official web portal to all federal, state and local government web resources and services.